Flag for Canada Weather past 2 weeks in Mount Pearl, Newfoundland and Labrador, Canada

Now
25 °F

Passing clouds.


Feels Like: 15 °F
Forecast: 24 / 31 °F
Wind: 9 mph from West

Location: St. John's

Current Time: Jan 31, 2015 at 7:36:01 AM

Latest Report: Jan 31, 2015 at 6:30 AM


Visibility: 15 mi

Pressure: 29.97 "Hg

Humidity: 100%

Dew point: 25 °F

Location of Mount PearlLocation

Historic Weather in Mount Pearl — Graph

°F

Mount Pearl temperature yesterday

Maximum temperature yesterday: 32 °F (at 12:30 PM)
Minimum temperature yesterday: 25 °F (at 12:30 AM)
Average temperature yesterday: 29 °F

Past Weeks' High & Low Weather Summary

 TemperatureHumidityPressure
High50 °F (Jan 28, 9:30 AM)100% (Jan 16, 6:30 AM)30.58 "Hg (Jan 16, 6:30 AM)
Low10 °F (Jan 18, 6:30 AM)59% (Jan 26, 1:30 PM)29.02 "Hg (Jan 25, 11:30 AM)
Average29 °F89%29.84 "Hg
* Reported Jan 16 6:30 AM — Jan 31 6:30 AM, Mount Pearl, Weather by CustomWeather, © 2014

Note: Actual official high and low records may vary slightly from our data, if they occured in-between our weather recording intervals... More about our weather records

Advertising

Mount Pearl weather history for previous 24 hours

 ConditionsComfort  
Time TempWeatherWind HumidityBarometerVisibility
6:30 AM
Jan 31
25 °FPassing clouds.9 mph100%29.97 "Hg15 mi
5:30 AM27 °FPassing clouds.12 mph93%29.95 "Hg15 mi
4:30 AM27 °FPassing clouds.15 mph93%29.92 "Hg15 mi
3:30 AM27 °FPassing clouds.21 mph100%29.91 "Hg15 mi
2:30 AM27 °FPassing clouds.22 mph100%29.85 "Hg15 mi
1:30 AM27 °FPassing clouds.18 mph100%29.80 "Hg15 mi
12:30 AM27 °FLow clouds.22 mph100%29.77 "Hg15 mi
11:30 PM
Jan 30
28 °FLow clouds.20 mph100%29.74 "Hg15 mi
10:30 PM30 °FLow clouds.28 mph100%29.68 "Hg15 mi
9:30 PM32 °FLight freezing rain. Low clouds.18 mph100%29.62 "Hg15 mi
8:30 PM32 °FLight freezing rain. Low clouds.30 mph100%29.56 "Hg15 mi
7:30 PM32 °FLight freezing rain. Ice fog.20 mph100%29.53 "Hg5 mi
6:30 PM32 °FLight freezing rain. Ice fog.15 mph100%29.50 "Hg4 mi
5:30 PM32 °FFog.5 mph100%29.49 "Hg0 mi
4:30 PM32 °FFog.2 mph100%29.51 "Hg0 mi
3:30 PM32 °FLight rain. Fog.5 mph100%29.54 "Hg1 mi
2:30 PM32 °FLight freezing rain. Ice fog.12 mph100%29.58 "Hg1 mi
2:24 PM32 °FLight freezing rain. Ice fog.14 mph100%29.58 "Hg1 mi
1:30 PM32 °FLight freezing rain. Ice fog.12 mph100%29.63 "Hg0 mi
1:18 PM32 °FLight freezing rain. Ice fog.13 mph100%29.63 "Hg0 mi
12:30 PM32 °FLight freezing rain. Ice fog.17 mph93%29.68 "Hg1 mi
11:30 AM30 °FLight freezing rain. Ice fog.22 mph100%29.78 "Hg1 mi
10:30 AM30 °FLight freezing rain. Ice fog.29 mph100%29.83 "Hg1 mi
9:30 AM30 °FLight freezing rain. Ice fog.24 mph100%29.90 "Hg1 mi
8:30 AM28 °FChilly.22 mph100%29.96 "Hg1 mi
8:20 AM28 °FLight freezing rain. Ice fog.23 mph100%29.96 "Hg1 mi
7:30 AM28 °FLight freezing rain. Ice fog.21 mph100%30.00 "Hg1 mi
Weather by CustomWeather, © 2014

See weather overviewHow to use our weather pages